Location: Taukkyan
(23.1052°N, 94.0030°E)
Time: 11:53:21
(UTC+00:00)

Hubble Space Telescope - Pass Details

Date: 06 July 2020
Orbit: 536 x 540 km, 28.5° (Epoch: 14 August)

Event Time Altitude Azimuth Distance (km) Brightness Sun altitude
Rises 14:07:46 0° 238° (WSW) 2,665 4.6 -19.4°
Reaches altitude 10° 14:10:04 10° 233° (SW) 1,777 3.6 -19.9°
Enters shadow 14:13:28 45° 187° (S) 725 1.1 -20.5°
